Wind_Speed
5 4 3 3 3 3 4 4 5 5 6 6 6 6 6 7 7 7 7 6 5 5 4 4 4 4 4 4 4 4 4 3 3 3 3 3 3 3 3 3 3 3 3 4
6 5 4 4 4 4 4 4 4 5 5 6 6 6 6 7 7 7 6 6 5 5 5 5 4 4 4 4 4 4 4 4 4 3 3 3 3 4 4 4 4 4 4 4
7 6 5 4 4 4 4 4 5 5 6 6 7 6 7 7 7 7 7 6 6 6 5 5 5 5 5 5 4 4 5 5 4 4 4 4 4 4 5 5 5 4 5 5
7 7 6 6 5 5 6 6 6 6 6 6 7 7 7 7 7 7 7 6 6 6 6 6 6 6 6 5 5 5 5 5 5 5 5 5 5 5 6 6 5 5 6 6
8 7 7 7 7 7 7 7 7 7 6 6 6 7 7 8 7 7 7 6 6 6 6 6 6 6 6 6 5 5 6 6 5 6 6 5 5 6 6 6 6 6 6 6
9 8 8 8 8 8 8 7 7 7 7 7 7 7 8 8 8 8 8 7 7 7 7 7 6 6 7 7 6 6 6 6 6 6 6 6 6 6 6 6 6 6 7 7
10 9 9 9 8 8 7 7 8 8 8 8 8 8 8 9 9 8 8 8 7 7 7 7 7 7 7 8 7 7 7 7 7 7 7 7 7 7 8 8 8 8 8 7
10 10 10 9 9 9 8 8 8 9 9 10 9 9 9 9 9 9 8 8 7 7 7 7 7 7 7 7 7 7 7 7 7 8 8 9 9 8 8 9 9 9 9 9
11 11 11 10 10 9 9 9 10 10 10 10 10 10 10 10 10 9 9 9 8 7 7 7 7 7 7 7 7 7 7 8 8 9 9 9 9 9 9 10 10 10 10 10
12 12 11 11 11 11 11 10 11 11 12 12 11 11 11 11 10 10 10 10 9 8 8 8 8 8 8 8 7 8 8 8 9 9 9 9 10 10 10 10 10 10 10 10
12 12 12 12 12 12 12 12 12 13 13 13 13 12 12 12 11 10 10 10 10 10 9 9 9 9 9 9 9 9 9 9 9 9 10 10 10 10 10 10 10 10 10 10
14 14 14 13 13 13 13 13 14 14 14 14 14 14 12 12 13 12 11 11 11 11 10 10 10 10 10 10 10 10 10 11 11 11 11 11 11 11 11 11 10 10 10 10
15 15 15 15 15 15 14 14 14 14 15 14 14 15 14 13 13 13 13 12 12 12 12 12 12 12 12 12 12 12 12 12 13 13 12 11 12 11 11 11 11 11 11 11
17 16 16 16 16 16 15 15 15 15 15 15 15 15 15 15 15 15 14 14 13 13 13 13 13 13 13 13 13 13 13 13 13 13 13 12 12 12 12 12 12 11 11 11
18 18 18 18 18 18 17 17 16 16 16 17 16 16 16 17 16 16 15 14 14 14 14 14 14 14 14 14 13 13 13 13 13 14 13 13 12 12 12 13 13 13 12 12
20 20 20 19 19 19 19 18 18 17 17 17 17 16 16 17 16 17 16 15 15 14 14 14 15 15 15 14 14 14 14 14 14 14 14 14 14 14 14 14 14 14 14 14
21 21 21 21 21 20 19 18 18 18 18 19 19 18 18 18 17 17 17 16 16 15 14 15 15 15 15 15 15 15 15 15 15 15 15 15 15 15 15 15 16 15 16 16
22 22 22 22 22 21 19 20 19 19 19 19 19 18 18 18 18 18 18 17 16 16 15 15 15 16 16 15 15 15 15 15 15 16 16 16 16 16 17 17 17 17 17 18
23 23 23 23 22 20 20 20 19 18 18 18 19 18 18 18 18 18 19 18 17 17 17 16 16 16 16 16 16 16 16 16 16 17 17 17 18 18 19 19 19 19 19 19
24 24 24 23 22 21 20 20 19 19 18 17 17 17 17 17 18 17 18 18 18 18 18 18 17 17 18 18 18 18 18 18 18 19 19 19 20 20 20 20 21 21 20 20
25 25 25 24 24 22 22 22 20 20 19 19 19 18 18 17 18 18 19 19 19 20 20 20 19 19 19 20 20 20 20 20 20 20 20 21 21 22 21 21 21 21 21 21
25 26 25 25 26 24 23 22 22 22 21 21 20 20 20 19 19 20 20 20 20 21 21 21 21 21 21 21 21 21 21 21 21 21 21 21 21 22 23 22 23 23 23 22
26 26 26 26 26 26 25 25 24 24 24 23 23 22 22 22 22 21 21 21 21 22 22 22 23 23 23 23 23 23 22 23 23 22 22 22 22 22 23 23 23 24 24 23
27 26 26 26 26 27 26 26 26 26 25 25 25 24 23 23 23 23 23 23 23 24 24 24 24 24 24 24 24 24 24 24 23 23 22 22 22 23 23 24 24 24 25 25
29 28 27 27 26 27 27 27 27 27 27 27 26 26 25 25 25 25 25 25 25 25 25 25 25 25 25 25 25 24 24 24 24 23 23 24 24 24 24 24 25 26 26 26
27 28 28 27 27 27 27 27 27 27 27 27 27 28 28 27 26 26 26 26 26 26 26 26 25 25 25 25 25 25 25 25 24 24 24 25 25 25 26 26 26 26 26 27
Wind_Direction
264 264 264 271 288 303 310 318 323 329 334 336 339 340 342 349 353 350 346 347 348 349 345 347 345 332 325 318 312 314 316 307 313 313 309 302 298 287 283 283 288 291 283 273
256 255 257 258 269 286 299 309 316 321 325 327 332 337 340 343 346 343 337 333 335 339 339 331 329 323 319 314 314 317 315 315 314 315 308 299 300 285 285 284 282 281 275 272
253 257 259 258 267 281 296 300 305 313 319 324 327 331 331 334 335 333 327 319 320 324 329 326 310 309 315 310 305 308 315 313 313 315 309 302 295 287 284 285 287 281 273 271
256 262 261 264 270 278 286 290 296 304 310 313 317 319 321 324 331 330 324 318 315 313 315 315 312 307 306 308 302 303 307 308 307 309 308 301 291 289 290 285 281 278 275 276
255 258 260 266 270 277 281 285 289 296 303 306 308 309 313 316 322 324 323 318 313 305 306 305 303 303 300 305 303 300 304 308 306 306 305 300 292 289 290 286 282 280 279 276
250 253 260 267 272 276 280 283 286 291 296 299 301 301 303 308 313 314 316 312 308 304 301 302 298 295 296 301 303 297 298 299 303 304 306 302 293 289 287 286 284 284 284 275
250 256 263 269 271 274 277 282 287 290 289 292 295 295 297 298 302 306 310 308 304 303 302 301 301 298 300 301 301 298 293 295 300 302 301 298 294 286 282 284 283 283 284 278
251 256 261 266 268 270 271 274 277 284 287 291 295 294 293 294 295 299 302 304 302 301 298 299 301 301 303 301 299 296 293 295 297 297 297 296 294 292 289 289 285 281 280 277
250 255 257 260 263 267 270 273 275 280 285 290 294 294 294 292 290 292 294 297 297 292 290 294 297 297 300 301 300 298 296 294 294 294 296 295 293 291 292 291 288 283 280 279
249 253 258 258 260 264 269 272 276 279 284 289 293 294 293 290 289 289 289 289 293 290 286 286 289 290 294 297 298 295 292 293 293 293 295 295 294 291 290 291 291 287 280 277
252 255 259 263 265 268 271 273 275 277 280 284 287 289 290 286 285 287 287 285 285 286 282 279 282 286 287 289 291 293 293 292 291 292 294 293 292 290 290 290 293 289 281 274
254 256 260 263 265 270 273 274 275 276 278 279 282 285 287 285 283 282 282 280 279 279 276 276 280 281 282 285 287 288 292 292 292 293 294 290 288 290 288 286 287 287 280 275
254 256 260 265 268 270 272 275 277 277 276 277 280 284 283 282 282 281 280 278 277 275 275 275 277 280 280 282 285 287 290 290 291 292 294 292 288 286 285 284 284 285 282 276
255 256 259 263 267 271 272 274 276 277 277 277 278 281 282 280 279 279 279 278 277 274 274 272 274 277 279 279 281 284 286 288 291 293 293 291 290 288 284 284 286 283 281 279
256 258 261 263 266 270 271 271 273 275 276 277 277 277 279 280 278 278 276 275 274 273 273 273 273 275 276 277 279 282 283 285 288 290 289 288 287 285 285 285 285 285 281 279
255 258 260 264 267 269 270 270 271 272 274 276 276 276 277 277 277 276 274 272 272 272 274 274 274 273 274 276 278 280 282 284 285 285 285 285 283 282 284 286 284 283 282 279
256 258 260 264 266 268 269 270 270 272 275 275 276 275 275 275 276 274 271 269 271 271 271 271 272 272 273 276 277 279 280 282 284 283 282 282 283 283 283 285 284 283 283 281
256 258 260 264 266 266 269 269 271 272 273 273 273 273 274 277 275 273 271 269 270 269 270 271 269 269 272 275 276 277 280 282 282 282 282 282 283 284 284 281 282 282 282 281
256 259 262 264 264 265 267 269 270 272 273 273 273 274 276 277 277 273 271 270 269 269 270 271 269 269 273 273 275 277 281 282 282 281 281 282 285 284 285 282 281 281 281 281
255 258 261 262 262 263 265 266 269 271 271 273 275 275 275 275 274 272 269 269 269 269 270 271 272 271 272 275 276 278 281 282 282 281 282 282 284 285 285 283 284 283 282 282
256 257 259 260 261 262 263 265 267 268 269 271 273 275 275 273 272 270 268 268 270 271 272 273 272 273 274 275 276 277 280 283 282 281 281 281 284 286 285 286 287 286 283 282
255 256 258 259 260 262 264 265 266 267 268 270 272 274 273 273 271 270 269 269 271 273 272 273 273 274 275 275 276 276 278 282 282 282 283 283 284 284 284 284 285 284 283 280
253 256 257 258 260 262 262 265 267 267 268 269 270 270 272 272 272 272 272 272 274 274 273 274 274 275 276 276 276 277 278 280 282 283 284 284 284 285 284 285 285 284 283 280
253 255 257 257 259 260 261 263 265 267 268 269 269 270 270 271 271 271 271 273 275 276 275 275 275 275 276 277 276 277 277 278 280 282 283 284 285 285 284 283 284 283 280 279
255 255 255 256 258 259 261 263 264 265 267 268 268 269 270 270 271 271 272 273 275 276 275 275 274 274 275 276 276 277 278 278 279 281 282 283 285 285 285 283 284 282 280 279
256 257 256 257 259 261 262 263 264 265 266 267 268 270 270 271 271 271 272 273 274 274 275 275 275 274 274 275 275 276 277 278 279 281 282 283 284 285 285 284 284 283 282 281
Height
5890 5891 5890 5890 5890 5890 5890 5890 5889 5888 5887 5886 5884 5884 5883 5881 5880 5879 5877 5876 5875 5874 5873 5873 5872 5871 5870 5869 5869 5868 5867 5867 5866 5865 5865 5864 5864 5863 5863 5862 5862 5862 5861 5861
5889 5889 5889 5889 5889 5889 5889 5889 5888 5887 5886 5885 5884 5883 5882 5881 5880 5878 5877 5876 5875 5874 5873 5872 5871 5870 5869 5869 5868 5867 5867 5866 5865 5864 5864 5863 5863 5862 5862 5861 5861 5860 5860 5860
5887 5888 5887 5887 5887 5888 5887 5887 5887 5886 5885 5884 5883 5883 5882 5880 5879 5878 5877 5876 5875 5874 5873 5872 5871 5870 5868 5868 5867 5867 5866 5865 5864 5864 5863 5862 5861 5861 5861 5860 5860 5859 5859 5859
5885 5886 5886 5886 5886 5886 5886 5886 5885 5885 5884 5884 5883 5882 5881 5879 5878 5877 5875 5874 5874 5873 5872 5871 5870 5869 5868 5867 5866 5866 5865 5864 5863 5862 5862 5861 5860 5860 5859 5858 5858 5858 5857 5857
5884 5884 5884 5884 5884 5884 5884 5884 5883 5883 5882 5882 5881 5881 5880 5878 5877 5876 5874 5873 5872 5871 5870 5869 5868 5867 5867 5866 5865 5864 5864 5863 5862 5861 5860 5859 5859 5858 5857 5857 5856 5856 5855 5855
5882 5882 5882 5882 5882 5882 5882 5882 5882 5881 5881 5881 5880 5879 5879 5877 5876 5874 5873 5872 5871 5870 5869 5868 5867 5866 5865 5865 5864 5863 5862 5861 5860 5860 5859 5858 5857 5856 5856 5855 5854 5854 5853 5853
5879 5880 5880 5880 5880 5880 5880 5881 5881 5880 5880 5879 5878 5877 5877 5875 5873 5872 5871 5870 5869 5868 5867 5866 5866 5865 5864 5863 5862 5861 5861 5860 5859 5858 5857 5856 5855 5854 5854 5853 5852 5852 5851 5850
5877 5878 5878 5878 5878 5878 5878 5878 5879 5879 5878 5877 5875 5874 5874 5872 5871 5870 5869 5868 5867 5866 5865 5864 5864 5863 5862 5861 5860 5860 5859 5858 5857 5856 5855 5854 5853 5852 5851 5850 5850 5849 5848 5848
5874 5875 5875 5875 5875 5875 5875 5875 5876 5875 5874 5874 5873 5872 5871 5869 5868 5867 5866 5865 5864 5864 5863 5862 5862 5861 5860 5859 5859 5858 5857 5856 5855 5854 5853 5852 5851 5850 5849 5848 5847 5846 5845 5845
5871 5872 5872 5872 5872 5872 5873 5872 5873 5872 5871 5871 5870 5869 5869 5866 5865 5864 5863 5862 5862 5861 5861 5860 5859 5859 5858 5857 5856 5855 5855 5854 5853 5852 5851 5850 5848 5847 5846 5845 5844 5843 5842 5842
5867 5868 5869 5869 5869 5869 5870 5869 5869 5868 5868 5867 5867 5868 5865 5864 5862 5861 5860 5860 5859 5858 5858 5857 5857 5856 5856 5855 5854 5853 5852 5851 5850 5849 5848 5847 5845 5844 5843 5842 5841 5840 5839 5839
5863 5864 5865 5865 5865 5865 5865 5865 5865 5865 5864 5863 5862 5865 5861 5860 5859 5858 5857 5856 5855 5855 5854 5854 5854 5853 5853 5852 5851 5850 5849 5848 5847 5846 5845 5843 5842 5841 5840 5839 5838 5836 5836 5835
5859 5860 5861 5862 5863 5862 5861 5861 5860 5860 5860 5859 5858 5860 5857 5856 5854 5854 5853 5852 5852 5851 5851 5850 5850 5850 5849 5849 5848 5847 5846 5845 5844 5843 5841 5840 5839 5837 5836 5835 5834 5833 5832 5832
5855 5856 5858 5858 5857 5857 5857 5857 5856 5855 5855 5854 5854 5853 5852 5851 5850 5849 5849 5848 5848 5847 5847 5846 5846 5846 5845 5845 5844 5843 5843 5841 5840 5839 5837 5836 5835 5834 5833 5831 5830 5830 5829 5828
5850 5851 5851 5852 5852 5852 5852 5852 5851 5851 5850 5850 5849 5848 5847 5846 5845 5845 5844 5843 5843 5843 5842 5842 5842 5841 5841 5840 5840 5839 5838 5837 5836 5835 5833 5832 5831 5830 5829 5827 5826 5826 5825 5824
5844 5845 5846 5847 5847 5846 5846 5846 5846 5846 5845 5844 5843 5843 5842 5840 5840 5839 5839 5838 5838 5838 5838 5837 5837 5836 5836 5836 5835 5835 5834 5833 5832 5830 5829 5828 5827 5826 5825 5823 5822 5821 5820 5820
5839 5840 5841 5841 5841 5841 5842 5841 5840 5840 5839 5839 5838 5838 5836 5835 5834 5834 5833 5833 5833 5833 5833 5832 5832 5831 5831 5831 5830 5830 5829 5828 5827 5826 5825 5824 5823 5821 5820 5819 5818 5817 5816 5815
5833 5834 5834 5835 5836 5836 5838 5835 5835 5834 5834 5833 5832 5832 5831 5830 5829 5828 5827 5827 5828 5828 5827 5827 5827 5827 5826 5826 5825 5825 5824 5823 5822 5821 5820 5819 5818 5817 5815 5814 5813 5811 5810 5809
5827 5828 5828 5828 5828 5829 5830 5829 5829 5829 5828 5827 5826 5826 5825 5824 5823 5823 5822 5822 5822 5822 5822 5822 5821 5821 5821 5820 5820 5819 5819 5818 5817 5816 5815 5814 5813 5812 5810 5809 5807 5806 5805 5803
5820 5821 5822 5822 5822 5823 5825 5823 5823 5824 5823 5822 5821 5820 5820 5819 5818 5818 5817 5817 5817 5817 5816 5816 5815 5815 5815 5815 5814 5814 5813 5812 5811 5810 5809 5808 5807 5806 5804 5803 5801 5800 5798 5797
5813 5814 5815 5815 5815 5816 5817 5817 5817 5818 5818 5816 5815 5815 5814 5813 5813 5813 5812 5812 5811 5811 5810 5809 5809 5809 5808 5808 5808 5808 5807 5806 5805 5804 5803 5802 5801 5799 5798 5797 5795 5793 5792 5791
5806 5807 5808 5808 5809 5811 5810 5810 5811 5811 5810 5810 5809 5809 5808 5808 5807 5807 5806 5806 5805 5805 5804 5803 5802 5802 5801 5801 5801 5801 5800 5799 5798 5797 5796 5795 5794 5793 5792 5790 5789 5787 5785 5784
5799 5800 5800 5802 5804 5803 5803 5803 5803 5803 5803 5803 5802 5802 5802 5801 5801 5800 5800 5799 5798 5798 5797 5796 5795 5795 5794 5794 5793 5793 5793 5792 5791 5791 5789 5788 5787 5786 5784 5783 5782 5780 5779 5777
5791 5792 5792 5793 5794 5794 5794 5794 5795 5795 5795 5795 5795 5795 5795 5794 5794 5794 5793 5792 5792 5791 5790 5789 5788 5788 5787 5786 5786 5786 5785 5785 5784 5783 5782 5781 5780 5779 5777 5776 5774 5773 5771 5770
5783 5783 5784 5784 5786 5786 5786 5786 5787 5787 5787 5787 5787 5787 5787 5787 5786 5786 5785 5785 5784 5783 5782 5781 5781 5780 5780 5779 5778 5778 5778 5777 5777 5776 5775 5774 5773 5771 5769 5768 5766 5765 5763 5762
5774 5775 5776 5777 5777 5778 5778 5778 5779 5779 5779 5779 5779 5779 5778 5778 5778 5777 5777 5776 5775 5775 5774 5773 5773 5772 5772 5771 5771 5770 5770 5770 5769 5768 5767 5766 5765 5763 5761 5760 5758 5756 5755 5753